Regional Weather Roundup
Issued by NWS Charleston, SC

Current Version | Previous Version | Graphics & Text | Print | Product List | Glossary On
Versions: 1 2 3 4 5 6 7 8 9 10 11 12 13 14 15 16 17 18 19 20 21 22 23 24 25 26 27 28 29 30 31 32 33 34 35 36 37 38 39 40 41 42 43 44 45 46 47 48 49 50
129
ASUS42 KCHS 231512
RWRCHS

REGIONAL WEATHER ROUNDUP
NATIONAL WEATHER SERVICE CHARLESTON SC
1100 AM EDT MON OCT 23 2017

NOTE: "FAIR" INDICATES FEW OR NO CLOUDS BELOW 12,000 FEET WITH NO
SIGNIFICANT WEATHER AND/OR OBSTRUCTIONS TO VISIBILITY.

NOT ALL STATIONS ARE QUALITY CONTROLLED. USE DATA WITH CAUTION...
ESPECIALLY DEWPOINT OBSERVATIONS.

SCZ027-030-031-034>040-042>050-231600-
...SOUTHEAST SOUTH CAROLINA...

CITY           SKY/WX    TMP DP  RH WIND       PRES   REMARKS
N CHARLESTON   CLOUDY    74  72  93 SE10      30.06F
WATERFRONT PRK NOT AVBL
JOHNS ISLAND   PTSUNNY   75  72  88 SE9       30.06F
PINOPOLIS        N/A     73  72  94 VRB3      29.98F
MONCKS CORNER  DRIZZLE   72  70  94 S7G18     30.06F
SUMMERVILLE    FAIR      75  70  83 SE6       30.05F
BEAUFORT MCAS  CLOUDY    78  76  93 SE8       30.03F
BEAUFORT ARPT  PTSUNNY   77  73  88 S9G17     30.03F FOG
HILTON HEAD IS CLOUDY    79  73  83 S6G15     30.04F
WALTERBORO     CLOUDY    75  72  88 SE9       30.04F
ALLENDALE        N/A     77  73  88 S13         N/A

...SOUTHERN MIDLANDS AND PEE DEE...

CITY           SKY/WX    TMP DP  RH WIND       PRES   REMARKS
GEORGETOWN     PTSUNNY   77  70  78 SE13G21   30.10F
KINGSTREE      CLOUDY    72  70  94 SE9       30.06F
ORANGEBURG     CLOUDY    73  70  90 SE12      30.02F
BARNWELL         N/A     77  75  94 SE15      29.99F
AIKEN          CLOUDY    72  72 100 SE14G21   30.01F
MANNING        FAIR      72  70  94 MISG      30.05F
COLUMBIA       CLOUDY    75  73  93 SE13      30.00F
SUMTER         CLOUDY    73  68  83 SE10      30.01F
FLORENCE       LGT RAIN  74  71  91 SE13      30.07F
MYRTLE BEACH   CLOUDY    77  69  76 SE16      30.11F
N MYRTLE BEACH CLOUDY    77  68  73 SE13G20   30.10F

$$

GAZ063-065-086>088-099>101-113>116-118-119-134>141-150-231600-
...SOUTHEAST GEORGIA...

CITY           SKY/WX    TMP DP  RH WIND       PRES   REMARKS
SAVANNAH ARPT  CLOUDY    81  73  78 S15G23    30.01F
HUNTER AAF     MOSUNNY   79  74  84 S12       29.99F
FORT STEWART   CLOUDY    78  72  80 S13G18    29.98F
STATESBORO     CLOUDY    77  71  82 S13       29.99F
SYLVANIA       CLOUDY    77  76  95 S8        30.01F FOG
CLAXTON        FAIR      78  75  88 SE5       29.99F FOG

...CSRA...CENTRAL AND FAR SOUTHEAST GEORGIA...

CITY           SKY/WX    TMP DP  RH WIND       PRES   REMARKS
THOMSON        LGT RAIN  74  71  90 SW13G21   29.97F VSB 1/2
AUGUSTA-BUSH   CLOUDY    78  72  81 S17G23    29.94F
AUGUSTA-DANIEL CLOUDY    76  72  87 S17       29.96F
SWAINSBORO     LGT RAIN  77  77 100 E12G21    29.97F
VIDALIA        CLOUDY    77  73  88 S12G17    29.98S
EASTMAN        RAIN     N/A N/A N/A S12G20    29.94F
HAZLEHURST     CLOUDY    78  68  72 S14       29.97S
ALMA           CLOUDY    78  72  81 S12G22    29.98F
WAYCROSS       DRIZZLE   78  74  90 S13       29.99F
JESUP          NOT AVBL
BAXLEY         CLOUDY    75  75 100 S9G17     29.98S
BRUNSWICK      CLOUDY    79  72  78 S10G17    30.03S
SAINT SIMONS   PTSUNNY   79  75  87 S8        30.02F

$$

SCZ027-028-034-036>038-045-046-048>050-GAZ119-141-231600-
...LAKE AND SUPPLEMENTAL COASTAL OBSERVATIONS...

STATION/POSITION TIME  TEMP    WIND        PRES    WAVE   SWELL
                       AIR SEA DIR/SP/G            HT/PER HT/PER/DIR
                 (UTC) (F)     (DEG/KT/KT) (MB)    (FT/S) (FT/S/D)
WINYAH BAY       NOT AVBL
LAKE MURRAY      1420   72     130/ 12/ 17 1015.6F
ACE BASIN NERRS  1345   76     130/  5     1018.0
FORT PULASKI     1442   78 74  170/  8/ 16 1017.2F
SAPELO ISLAND    NOT AVBL

$$

ANZ835-935-AMZ111-154-330-350-352-354-370-450-454-472-231600-
...C-MAN AND BUOY OBSERVATIONS...

STATION/POSITION TIME  TEMP    WIND        PRES    WAVE   SWELL
                       AIR SEA DIR/SP/G            HT/PER HT/PER/DIR
                 (UTC) (F)     (DEG/KT/KT) (MB)    (FT/S) (FT/S/D)
BUOY 41004       1450   79 80  140/ 19/ 25 1018.1F   8/ 8
BUOY 41008       1450   78 77  150/ 16/ 19 1016.3F   6/ 8   3/ 90/ 8
FOLLY BEACH CMAN 1400   73     160/ 16/ 19 1019.2S
CAPERS NEARSHORE 1408   74 73  160/ 17/ 23 1018.0F
FRIPP NEARSHORE  1408   77     140/ 19/ 25   N/A


STATION/POSITION TIME  TEMP    WIND        PRES    WAVE   SWELL
                       AIR SEA DIR/SP/G            HT/PER HT/PER/DIR
                 (UTC) (F)     (DEG/KT/KT) (MB)    (FT/S) (FT/S/D)
5E ST. MARYS GA  1400      77                N/A     5/ 6
FRYING PAN BUOY  1450   77 78  140/ 17/ 21 1019.9F   5/ 5
BUOY 41025       1450   78 81  130/ 14/ 16 1022.1F   3/ 8   2/110/ 8
CAPE LOOKOUT NC  1400   75     130/  7/  7 1021.9F
BUOY 41002       1350   78 80  110/ 16/ 19 1022.4    4/ 8   2/110/ 8
BUOY 41010       NOT AVBL
ST AUGUSTINE FL  1500   79 78  170/ 20/ 22 1017.0F


$$




USA.gov is the U.S. government's official web portal to all federal, state and local government web resources and services.